Location: Days
(41.3591°N, 106.7339°W)
Time: 13:31:59
(UTC+00:00)

RS-15 - Pass Details

Date: 06 July 2022
Orbit: 1881 x 2163 km, 64.8° (Epoch: 13 August)

Event Time Altitude Azimuth Distance (km) Brightness Sun altitude
Rises 05:17:43 0° 325° (NW) 5,698 12.0 -20.7°
Reaches altitude 10° 05:21:17 10° 329° (NNW) 4,690 11.2 -21.0°
Maximum altitude 05:33:38 67° 52° (NE) 2,270 8.3 -22.0°
Enters shadow 05:41:35 25° 128° (SE) 3,478 8.8 -22.6°
